Time,TemperatureF,DewpointF,PressureIn,WindDirection,WindDirectionDegrees,WindSpeedMPH,WindSpeedGustMPH,Humidity,HourlyPrecipIn,Conditions,Clouds,dailyrainin,SolarRadiationWatts/m^2,SoftwareType,DateUTC
2013-04-18 00:00:00,25.0,9.0,-100.00,North,8,9.0,17.0,49,0.00,,,0.00,0.000000,,2013-04-18 07:00:00,
2013-04-18 00:32:00,25.0,9.0,-100.00,North,8,9.0,17.0,49,0.00,,,0.00,0.000000,,2013-04-18 07:32:00,
2013-04-18 00:42:00,25.0,9.0,-100.00,North,8,9.0,17.0,49,0.00,,,0.00,0.000000,,2013-04-18 07:42:00,
2013-04-18 00:52:00,25.0,9.0,-100.00,North,8,9.0,17.0,49,0.00,,,0.00,0.000000,,2013-04-18 07:52:00,
2013-04-18 01:00:00,25.0,7.0,-100.00,North,5,9.0,17.0,45,0.00,,,0.00,0.000000,,2013-04-18 08:00:00,
2013-04-18 01:32:00,25.0,7.0,-100.00,North,5,9.0,17.0,45,0.00,,,0.00,0.000000,,2013-04-18 08:32:00,
2013-04-18 01:42:00,25.0,7.0,-100.00,North,5,9.0,17.0,45,0.00,,,0.00,0.000000,,2013-04-18 08:42:00,
2013-04-18 01:52:00,25.0,7.0,-100.00,North,5,9.0,17.0,45,0.00,,,0.00,0.000000,,2013-04-18 08:52:00,
2013-04-18 02:00:00,23.0,6.0,-100.00,NNE,13,12.0,19.0,48,0.00,,,0.00,0.000000,,2013-04-18 09:00:00,
2013-04-18 02:22:00,23.0,6.0,-100.00,NNE,13,12.0,19.0,48,0.00,,,0.00,0.000000,,2013-04-18 09:22:00,
2013-04-18 02:33:00,23.0,6.0,-100.00,NNE,13,12.0,19.0,48,0.00,,,0.00,0.000000,,2013-04-18 09:33:00,
2013-04-18 02:43:00,23.0,6.0,-100.00,NNE,13,12.0,19.0,48,0.00,,,0.00,0.000000,,2013-04-18 09:43:00,
2013-04-18 02:53:00,23.0,6.0,-100.00,NNE,13,12.0,19.0,48,0.00,,,0.00,0.000000,,2013-04-18 09:53:00,
2013-04-18 03:00:00,23.0,7.0,-100.00,NNE,12,10.0,21.0,50,0.00,,,0.00,0.000000,,2013-04-18 10:00:00,
2013-04-18 03:33:00,23.0,7.0,-100.00,NNE,12,10.0,21.0,50,0.00,,,0.00,0.000000,,2013-04-18 10:33:00,
2013-04-18 03:42:00,23.0,7.0,-100.00,NNE,12,10.0,21.0,50,0.00,,,0.00,0.000000,,2013-04-18 10:42:00,
2013-04-18 03:52:00,23.0,7.0,-100.00,NNE,12,10.0,21.0,50,0.00,,,0.00,0.000000,,2013-04-18 10:52:00,
2013-04-18 04:00:00,22.0,7.0,-100.00,North,9,11.0,19.0,52,0.00,,,0.00,0.000000,,2013-04-18 11:00:00,
2013-04-18 04:32:00,22.0,7.0,-100.00,North,9,11.0,19.0,52,0.00,,,0.00,0.000000,,2013-04-18 11:32:00,
2013-04-18 04:42:00,22.0,7.0,-100.00,North,9,11.0,19.0,52,0.00,,,0.00,0.000000,,2013-04-18 11:42:00,
2013-04-18 04:52:00,22.0,7.0,-100.00,North,9,11.0,19.0,52,0.00,,,0.00,0.000000,,2013-04-18 11:52:00,
2013-04-18 05:00:00,22.0,7.0,-100.00,North,10,7.0,20.0,52,0.00,,,0.00,0.000000,,2013-04-18 12:00:00,
2013-04-18 05:32:00,22.0,7.0,-100.00,North,10,7.0,20.0,52,0.00,,,0.00,0.000000,,2013-04-18 12:32:00,
2013-04-18 05:42:00,22.0,7.0,-100.00,North,10,7.0,20.0,52,0.00,,,0.00,0.000000,,2013-04-18 12:42:00,
2013-04-18 05:52:00,22.0,7.0,-100.00,North,10,7.0,20.0,52,0.00,,,0.00,0.000000,,2013-04-18 12:52:00,
2013-04-18 06:00:00,21.0,8.0,-100.00,NNE,19,9.0,16.0,57,0.00,,,0.00,0.000000,,2013-04-18 13:00:00,
2013-04-18 06:33:00,21.0,8.0,-100.00,NNE,19,9.0,16.0,57,0.00,,,0.00,0.000000,,2013-04-18 13:33:00,
2013-04-18 06:42:00,21.0,8.0,-100.00,NNE,19,9.0,16.0,57,0.00,,,0.00,0.000000,,2013-04-18 13:42:00,
2013-04-18 06:52:00,21.0,8.0,-100.00,NNE,19,9.0,16.0,57,0.00,,,0.00,0.000000,,2013-04-18 13:52:00,
2013-04-18 07:00:00,23.0,9.0,-100.00,North,9,9.0,16.0,55,0.00,,,0.00,6.000000,,2013-04-18 14:00:00,
2013-04-18 07:22:00,23.0,9.0,-100.00,North,9,9.0,16.0,55,0.00,,,0.00,6.000000,,2013-04-18 14:22:00,
2013-04-18 07:33:00,23.0,9.0,-100.00,North,9,9.0,16.0,55,0.00,,,0.00,6.000000,,2013-04-18 14:33:00,
2013-04-18 07:43:00,23.0,9.0,-100.00,North,9,9.0,16.0,55,0.00,,,0.00,6.000000,,2013-04-18 14:43:00,
2013-04-18 07:52:00,23.0,9.0,-100.00,North,9,9.0,16.0,55,0.00,,,0.00,6.000000,,2013-04-18 14:52:00,
2013-04-18 08:00:00,28.0,7.0,-100.00,North,3,10.0,20.0,40,0.00,,,0.00,30.000000,,2013-04-18 15:00:00,
2013-04-18 08:33:00,28.0,7.0,-100.00,North,3,10.0,20.0,40,0.00,,,0.00,30.000000,,2013-04-18 15:33:00,
2013-04-18 08:43:00,28.0,7.0,-100.00,North,3,10.0,20.0,40,0.00,,,0.00,30.000000,,2013-04-18 15:43:00,
2013-04-18 08:53:00,28.0,7.0,-100.00,North,3,10.0,20.0,40,0.00,,,0.00,30.000000,,2013-04-18 15:53:00,
2013-04-18 09:00:00,33.0,3.0,-100.00,NNE,19,7.0,17.0,28,0.00,,,0.00,466.000000,,2013-04-18 16:00:00,
2013-04-18 09:33:00,33.0,3.0,-100.00,NNE,19,7.0,17.0,28,0.00,,,0.00,466.000000,,2013-04-18 16:33:00,
2013-04-18 09:43:00,33.0,3.0,-100.00,NNE,19,7.0,17.0,28,0.00,,,0.00,466.000000,,2013-04-18 16:43:00,
2013-04-18 09:52:00,33.0,3.0,-100.00,NNE,19,7.0,17.0,28,0.00,,,0.00,466.000000,,2013-04-18 16:52:00,
2013-04-18 10:00:00,35.0,0.0,-100.00,SSW,203,7.0,16.0,22,0.00,,,0.00,825.000000,,2013-04-18 17:00:00,
2013-04-18 10:33:00,35.0,0.0,-100.00,SSW,203,7.0,16.0,22,0.00,,,0.00,825.000000,,2013-04-18 17:33:00,
2013-04-18 10:43:00,35.0,0.0,-100.00,SSW,203,7.0,16.0,22,0.00,,,0.00,825.000000,,2013-04-18 17:43:00,
2013-04-18 10:52:00,35.0,0.0,-100.00,SSW,203,7.0,16.0,22,0.00,,,0.00,825.000000,,2013-04-18 17:52:00,
2013-04-18 11:00:00,37.0,-1.0,-100.00,WNW,293,10.0,20.0,19,0.00,,,0.00,1067.000000,,2013-04-18 18:00:00,
2013-04-18 11:33:00,37.0,-1.0,-100.00,WNW,293,10.0,20.0,19,0.00,,,0.00,1067.000000,,2013-04-18 18:33:00,
2013-04-18 11:43:00,37.0,-1.0,-100.00,WNW,293,10.0,20.0,19,0.00,,,0.00,1067.000000,,2013-04-18 18:43:00,
2013-04-18 11:52:00,37.0,-1.0,-100.00,WNW,293,10.0,20.0,19,0.00,,,0.00,1067.000000,,2013-04-18 18:52:00,
2013-04-18 12:00:00,38.0,-1.0,-100.00,NW,314,7.0,18.0,19,0.00,,,-99.99,1249.000000,,2013-04-18 19:00:00,
2013-04-18 12:32:00,38.0,-1.0,-100.00,NW,314,7.0,18.0,19,0.00,,,-99.99,1249.000000,,2013-04-18 19:32:00,
2013-04-18 12:42:00,38.0,-1.0,-100.00,NW,314,7.0,18.0,19,0.00,,,-99.99,1249.000000,,2013-04-18 19:42:00,
2013-04-18 12:52:00,38.0,-1.0,-100.00,NW,314,7.0,18.0,19,0.00,,,-99.99,1249.000000,,2013-04-18 19:52:00,
2013-04-18 13:00:00,45.0,-3.0,-100.00,North,349,6.0,16.0,13,0.00,,,0.00,1349.000000,,2013-04-18 20:00:00,
2013-04-18 13:32:00,45.0,-3.0,-100.00,North,349,6.0,16.0,13,0.00,,,0.00,1349.000000,,2013-04-18 20:32:00,
2013-04-18 13:42:00,45.0,-3.0,-100.00,North,349,6.0,16.0,13,0.00,,,0.00,1349.000000,,2013-04-18 20:42:00,
2013-04-18 13:52:00,45.0,-3.0,-100.00,North,349,6.0,16.0,13,0.00,,,0.00,1349.000000,,2013-04-18 20:52:00,
2013-04-18 14:00:00,46.0,-6.0,-100.00,NNW,347,9.0,18.0,11,0.00,,,0.00,1369.000000,,2013-04-18 21:00:00,
2013-04-18 14:22:00,46.0,-6.0,-100.00,NNW,347,9.0,18.0,11,0.00,,,0.00,1369.000000,,2013-04-18 21:22:00,
2013-04-18 14:33:00,46.0,-6.0,-100.00,NNW,347,9.0,18.0,11,0.00,,,0.00,1369.000000,,2013-04-18 21:33:00,
2013-04-18 14:43:00,46.0,-6.0,-100.00,NNW,347,9.0,18.0,11,0.00,,,0.00,1369.000000,,2013-04-18 21:43:00,
2013-04-18 14:53:00,46.0,-6.0,-100.00,NNW,347,9.0,18.0,11,0.00,,,0.00,1369.000000,,2013-04-18 21:53:00,
2013-04-18 15:00:00,46.0,-6.0,-100.00,NNW,334,5.0,20.0,11,0.00,,,0.00,1307.000000,,2013-04-18 22:00:00,
2013-04-18 15:23:00,46.0,-6.0,-100.00,NNW,334,5.0,20.0,11,0.00,,,0.00,1307.000000,,2013-04-18 22:23:00,
2013-04-18 15:33:00,46.0,-6.0,-100.00,NNW,334,5.0,20.0,11,0.00,,,0.00,1307.000000,,2013-04-18 22:33:00,
2013-04-18 15:42:00,46.0,-6.0,-100.00,NNW,334,5.0,20.0,11,0.00,,,0.00,1307.000000,,2013-04-18 22:42:00,
2013-04-18 15:52:00,46.0,-6.0,-100.00,NNW,334,5.0,20.0,11,0.00,,,0.00,1307.000000,,2013-04-18 22:52:00,
2013-04-18 16:00:00,48.0,-8.0,-100.00,North,351,11.0,20.0,9,0.00,,,0.00,1166.000000,,2013-04-18 23:00:00,
2013-04-18 16:32:00,48.0,-8.0,-100.00,North,351,11.0,20.0,9,0.00,,,0.00,1166.000000,,2013-04-18 23:32:00,
2013-04-18 16:42:00,48.0,-8.0,-100.00,North,351,11.0,20.0,9,0.00,,,0.00,1166.000000,,2013-04-18 23:42:00,
2013-04-18 16:52:00,48.0,-8.0,-100.00,North,351,11.0,20.0,9,0.00,,,0.00,1166.000000,,2013-04-18 23:52:00,
2013-04-18 17:00:00,46.0,-7.0,-100.00,North,9,8.0,19.0,10,0.00,,,0.00,955.000000,,2013-04-19 00:00:00,
2013-04-18 17:32:00,46.0,-7.0,-100.00,North,9,8.0,19.0,10,0.00,,,0.00,955.000000,,2013-04-19 00:32:00,
2013-04-18 17:42:00,46.0,-7.0,-100.00,North,9,8.0,19.0,10,0.00,,,0.00,955.000000,,2013-04-19 00:42:00,
2013-04-18 17:51:00,46.0,-7.0,-100.00,North,9,8.0,19.0,10,0.00,,,0.00,955.000000,,2013-04-19 00:51:00,
2013-04-18 18:00:00,47.0,-3.0,-100.00,North,350,5.0,15.0,12,0.00,,,0.00,686.000000,,2013-04-19 01:00:00,
2013-04-18 18:32:00,47.0,-3.0,-100.00,North,350,5.0,15.0,12,0.00,,,0.00,686.000000,,2013-04-19 01:32:00,
2013-04-18 18:42:00,47.0,-3.0,-100.00,North,350,5.0,15.0,12,0.00,,,0.00,686.000000,,2013-04-19 01:42:00,
2013-04-18 18:52:00,47.0,-3.0,-100.00,North,350,5.0,15.0,12,0.00,,,0.00,686.000000,,2013-04-19 01:52:00,
2013-04-18 19:00:00,41.0,-2.0,-100.00,North,357,4.0,14.0,16,0.00,,,0.00,387.000000,,2013-04-19 02:00:00,
2013-04-18 19:21:00,41.0,-2.0,-100.00,North,357,4.0,14.0,16,0.00,,,0.00,387.000000,,2013-04-19 02:21:00,
2013-04-18 19:32:00,41.0,-2.0,-100.00,North,357,4.0,14.0,16,0.00,,,0.00,387.000000,,2013-04-19 02:32:00,
2013-04-18 19:42:00,41.0,-2.0,-100.00,North,357,4.0,14.0,16,0.00,,,0.00,387.000000,,2013-04-19 02:42:00,
2013-04-18 19:52:00,41.0,-2.0,-100.00,North,357,4.0,14.0,16,0.00,,,0.00,387.000000,,2013-04-19 02:52:00,
2013-04-18 20:00:00,35.0,0.0,-100.00,NW,305,4.0,9.0,22,0.00,,,0.00,103.000000,,2013-04-19 03:00:00,
2013-04-18 20:33:00,35.0,0.0,-100.00,NW,305,4.0,9.0,22,0.00,,,0.00,103.000000,,2013-04-19 03:33:00,
2013-04-18 20:43:00,35.0,0.0,-100.00,NW,305,4.0,9.0,22,0.00,,,0.00,103.000000,,2013-04-19 03:43:00,
2013-04-18 20:53:00,35.0,0.0,-100.00,NW,305,4.0,9.0,22,0.00,,,0.00,103.000000,,2013-04-19 03:53:00,
2013-04-18 21:00:00,34.0,2.0,-100.00,North,0,5.0,9.0,25,0.00,,,0.00,0.000000,,2013-04-19 04:00:00,
2013-04-18 21:33:00,34.0,2.0,-100.00,North,0,5.0,9.0,25,0.00,,,0.00,0.000000,,2013-04-19 04:33:00,
2013-04-18 21:43:00,34.0,2.0,-100.00,North,0,5.0,9.0,25,0.00,,,0.00,0.000000,,2013-04-19 04:43:00,
2013-04-18 21:52:00,34.0,2.0,-100.00,North,0,5.0,9.0,25,0.00,,,0.00,0.000000,,2013-04-19 04:52:00,
2013-04-18 22:00:00,32.0,3.0,-100.00,North,2,8.0,13.0,28,0.00,,,0.00,0.000000,,2013-04-19 05:00:00,
2013-04-18 22:32:00,32.0,3.0,-100.00,North,2,8.0,13.0,28,0.00,,,0.00,0.000000,,2013-04-19 05:32:00,
2013-04-18 22:42:00,32.0,3.0,-100.00,North,2,8.0,13.0,28,0.00,,,0.00,0.000000,,2013-04-19 05:42:00,
2013-04-18 22:52:00,32.0,3.0,-100.00,North,2,8.0,13.0,28,0.00,,,0.00,0.000000,,2013-04-19 05:52:00,
2013-04-18 23:00:00,32.0,9.0,-100.00,North,7,5.0,14.0,38,0.00,,,0.00,0.000000,,2013-04-19 06:00:00,
2013-04-18 23:32:00,32.0,9.0,-100.00,North,7,5.0,14.0,38,0.00,,,0.00,0.000000,,2013-04-19 06:32:00,
2013-04-18 23:42:00,32.0,9.0,-100.00,North,7,5.0,14.0,38,0.00,,,0.00,0.000000,,2013-04-19 06:42:00,
2013-04-18 23:53:00,32.0,9.0,-100.00,North,7,5.0,14.0,38,0.00,,,0.00,0.000000,,2013-04-19 06:53:00,